Find Kelpie-2

NORAD ID: 56996 Int'l Des: 2023-084 Owner: CLAAC Country: UK operational
LEOCIRCULARRETROGRADESSO

Live Position

Loading 3D Globe...

About Kelpie-2

Description loading...

Upcoming Passes

Passes for default location (London). Set your location on the main map for personalized predictions.

Altitude History

Loading altitude history...

Two-Line Element Set

1 56996U 23084BY 26105.91470524 .00001377 00000-0 16344-3 0 9997
2 56996 98.1384 244.4131 0056092 300.9707 58.6003 14.85136291144132
Epoch: Apr 15, 2026 • Age: 13 hours

Current Status

Altitude 600.9 km
Velocity 7.58 km/s
Sub-Earth Point -70.42°S, 94.59°W
Launch Date Jun 12, 2023
Age 2.8 years
Type other

Technical Details

Classification Payload
Mass 4.00 kg
Dry Mass 4.00 kg
Total Mass 4.00 kg
Length 0.30 m
Diameter 0.10 m
Span 0.30 m
Shape Box
Manufacturer CLAAC
Bus Type Cubesat 3U
Phase Status In Orbit
Owner/State CLAAC/UK

Most Searched